Location: ?????? ??????
(44.3742°N, 135.2221°E)
Time: 04:24:28
(UTC+00:00)

ALOS 2 - Pass Details

Date: 19 May 2025
Orbit: 630 x 632 km, 97.9° (Epoch: 15 June)

Event Time Altitude Azimuth Distance (km) Brightness Sun altitude
Exits shadow 14:12:00 62° 65° (ENE) 717 2.8 -24.9°
Drops below altitude 10° 14:16:15 10° 354° (N) 2,024 6.2 -25.1°
Sets 14:18:28 0° 351° (N) 2,936 7.4 -25.2°
